Погода в Джикимде

Погода в Джикимде : погода сейчас, прогноз погоды и архив. Всё, что Вы хотите узнать о погоде в Джикимде!

Поиск расширенной информации на нашем сайте:

Другие новости

Новости СМИ2

Главная страница сайта

Новости сайта

03.07.2017

Напоминаем, что на нашем специализированном сайте Метеоцентр.Азия вы можете получить высокодетализированные автоматические прогнозы погоды по пунктам России, СНГ и мира в авиационном формате (включающие направление и скорость ветра, видимость, явления погоды, количество и форму облачности, нижнюю и верхнюю границу облачности).


Погода в Джикимде - сегодня

Время (UTC), дата Ветер
(°,м/с) 
Видим.   Явления Облачность Т
(°С)
Тd
(°С)
f(%) Тe
(°С)
Pmin
(гПа)
dP
(гПа)
Po
(мм)
O2
(г/м3)
Тmin Tmax R s Состояние
почвы
06 17.02.18 тихо ()   20000 м    9/0 верхняя 
[Cs]
-24.7 -28.6 70 -25  1025.8  -2.3  751  335           
09 17.02.18 тихо ()   20000 м    10/0 верхняя 
[Cs]
-25.1 -29 70 -25  1025  -0.8  750  335           
12 17.02.18 тихо ()   20000 м    6/0 верхняя 
[Cs]
-28.6 -31.7 75 -29  1025.5  0.1  751  340    -24.7       
15 17.02.18 тихо ()   20000 м    3/0 верхняя 
[Cs]
-30.1 -33.2 74 -30  1026.7  0.9  751  342           
18 17.02.18 тихо ()   20000 м    ясно 
-32.8 -35.8 75 -33  1028  752  346           
21 17.02.18 тихо ()   20000 м    ясно 
-33.5 -36.6 74 -34  1028  752  347           
00 18.02.18 тихо ()   20000 м    ясно 
-36.6 -39.4 75 -37  1029.2  0.8  753  352  -37.2      58  равномерный
сухой снег
100% 
03 18.02.18 тихо ()   20000 м    4/0 верхняя 
[Ci fib]
-29.8 -32.8 75 -30  1027.1  -1  752  342           
06 18.02.18 тихо ()   20000 м    4/0 верхняя 
[Ci fib]
-22.4 -26.4 70 -22  1026  -0.5  751  332           
09 18.02.18 тихо ()   20000 м    3/0 верхняя 
[Ci fib]
-22.2 -26.3 69 -22  1025.5  -0.5  751  331           
12 18.02.18 тихо ()   20000 м    3/0 верхняя 
[Cs]
-28 -31.2 74 -28  1027.1  752  339    -21.7       
15 18.02.18 тихо ()   20000 м    3/0 верхняя 
[Cs]
-29.5 -32.6 74 -30  1027.6  0.3  752  342           
18 18.02.18 тихо ()   20000 м    3/0 верхняя 
[Cs]
-31.8 -34.1 80 -32  1028.2  0.4  752  345           
21 18.02.18 тихо ()   20000 м  слаб. снег  6/0 верхняя 
[Cs]
-30.5 -33 79 -31  1028.4  0.2  752  343           
03 19.02.18 тихо ()   20000 м  слаб. снег  8/0 средняя, верхняя 
[Ac As|Cs]
-27 -30.2 74 -27  1026.2  -1.1  751  338           
06 19.02.18 тихо ()   20000 м  слаб. снег  10/0 средняя, верхняя 
[As op|Cs]
-21.7 -24.9 75 -22  1023.2  -2.4  749  330           
09 19.02.18 тихо ()   20000 м  {снег}  10/0 верхняя 
[Cs]
-18.5 -21.8 75 -19  1022.7  -0.4  749  325           
15 19.02.18 тихо ()   20000 м  слаб. снег  10/0 верхняя 
[Cs]
-25.1 -27.6 80 -25  1021.5  -0.4  748  334           
18 19.02.18 тихо ()   20000 м  слаб. снег  10/0 верхняя 
[Cs]
-27 -29.5 79 -27  1021  -0.5  740  333           
21 19.02.18 тихо ()   20000 м  {снег}  10/0 верхняя 
[Cs]
-23.7 -26.3 79 -24  1020.3  -0.5  747  331           
03 20.02.18 230 (ЮЗ) 20000 м    10/0 средняя, верхняя 
[Ac As|Cs]
-17.6 -21 75 -18  1018.3  -1  746  323           
06 20.02.18 290 (З) 20000 м  позёмок  10/0 средняя, верхняя 
[Sc|Ac trans|Cs]
-15.1 -18.5 75 -19  1017.7  -0.5  746  320           
09 20.02.18 090 (В) 20000 м  слаб. снег  10/0 средняя 
[Ac As]
-15.7 -19.9 70 -16  1017.5  -0.2  746  320           
15 20.02.18 тихо ()   20000 м  слаб. снег  10/0 средняя 
[Ac As]
-23.5 -26.8 74 -24  1017.6  -0.8  745  330           
18 20.02.18 тихо ()   20000 м  слаб. снег  10/0 средняя 
[Ac As]
-25.6 -28.8 74 -26  1016.4  -1.7  744  333           
Время (UTC), дата Ветер
(°,м/с) 
Видим.   Явления Облачность Т
(°С)
Тd
(°С)
f(%) Тe
(°С)
Pmin
(гПа)
dP
(гПа)
Po
(мм)
O2
(г/м3)
Тmin Tmax R s Состояние
почвы

Для получения пояснительной информации подведите курсор к названию столбца.

ПОГОДА в Джикимде - архив

Всё, что Вы хотите узнать о погоде в Джикимде - удобно и подробно!

Выберите нужную дату (начиная с 1 января 2015* года) и нажмите кнопку "Найти".
Будут отображены архивные сводки погоды по пункту Джикимда, начиная с указанной даты.


Отображать данные в формате CSV (для использования в таблицах Excel)


Внимание! Наш архив погоды предназначен исключительно для личного некоммерческого использования в познавательных целях. Если Вам необходимы официальные справки о состоянии погоды (для производственных, юридических, коммерческих и т.п. целей), обращайтесь в органы Росгидромета.

*Примечание: данная дата относится к архиву по метеостанциям СССР (Россия, СНГ, Балтия).
Архив по метеостанциям Зарубежной Европы и Азии (кроме Китая) хранится 10 дней, по другим регионам земного шара (Китай, Африка, Америка, Австралия, Океания) - 1 день.

Джикимда - район местоположения метеостанции


Название, широта, долгота, высота метеостанции:
Джикимда 59°ш. 121.8°д. 170 м над ур. моря [Российская Федерация]

Дополнительная информация

В oтличие oт бoльшинства пoгoдных сайтoв мы публикуем пoдрoбную метеoинфoрмацию в детальнoм прoфессиoнальнoм фoрмате.

Характеристики температуры и влажнoсти вoздуха измеряются на высoте 2 м в тени вдали oт зданий и деревьев.
Скoрoсть ветра измеряется на высoте 10 м (на урoвне рoста челoвека скoрoсть ветра ниже в 1.5-2 раза). Если метеoстанция нахoдится в гoрoде или в лесу, тo скoрoсть ветра занижена на 2-4 м/с пo сравнению с oткрытым местoм. Скoрoсть ветра над акватoриями крупных рек и oзёр, а также на вершинах хoлмoв на 2-5 м/с выше, чем в oбычных услoвиях.
Атмoсфернoе давление в разных тoчках местнoсти мoжет значительнo oтличаться oт давления на метеoстанции, в зависимoсти oт услoвий рельефа (при пoдъёме на 10 м давление пoнижается примернo на 1 мм рт.ст.).